GW3885 Weather Reports


time (UTC)temp
C
wind
direction
speed
KPH
gust
KPH
rain 1hr
cm
rain 24hr
cm
rain mn
cm
humidity
%
barometer
mb
20260510071557 20 103 1.6 6.4 0.00 0.10 0.00 92 1010.8
20260510071052 21 104 3.2 11.3 0.00 0.10 0.00 92 1010.8
20260510070556 21 105 3.2 11.3 0.00 0.10 0.00 92 1011.0
20260510070053 21 101 4.8 11.3 0.00 0.10 0.00 92 1010.9
20260510065552 21 99 4.8 11.3 0.00 0.10 0.00 92 1010.9
20260510065055 21 108 3.2 12.9 0.00 0.10 0.00 92 1010.9
20260510064558 21 115 4.8 12.9 0.00 0.10 0.00 92 1010.9
20260510064054 21 110 6.4 12.9 0.00 0.10 0.00 92 1010.9
20260510063555 21 107 6.4 12.9 0.00 0.10 0.00 92 1011.0
20260510063056 21 109 6.4 12.9 0.00 0.10 0.00 92 1011.1
20260510062555 21 88 3.2 11.3 0.00 0.10 0.00 91 1011.0
20260510062054 21 88 4.8 11.3 0.00 0.10 0.00 91 1011.0
20260510061555 21 87 3.2 11.3 0.00 0.10 0.00 91 1011.0
20260510061056 21 86 6.4 11.3 0.00 0.10 0.00 92 1011.1
20260510060556 20 90 4.8 11.3 0.00 0.10 0.00 92 1011.1
20260510060058 20 87 4.8 11.3 0.00 0.10 0.00 92 1011.0
20260510055555 20 88 4.8 9.7 0.00 0.10 0.00 91 1011.1
20260510055057 20 95 3.2 9.7 0.00 0.10 0.00 90 1011.0
20260510054554 20 121 1.6 11.3 0.00 0.10 0.00 91 1010.9
20260510054053 20 121 3.2 11.3 0.00 0.10 0.00 90 1010.8
20260510053555 21 98 4.8 9.7 0.00 0.10 0.00 90 1011.0
20260510053055 21 118 1.6 8.0 0.00 0.10 0.00 90 1010.9
20260510052556 21 128 3.2 8.0 0.00 0.10 0.00 89 1010.9
20260510052055 21 126 3.2 8.0 0.00 0.10 0.00 89 1010.8
20260510051559 21 134 3.2 8.0 0.00 0.10 0.00 89 1010.8
20260510051057 21 136 3.2 6.4 0.00 0.10 0.00 88 1010.6
20260510050554 21 136 3.2 6.4 0.00 0.10 0.00 88 1010.6
20260510050058 21 137 3.2 6.4 0.00 0.10 0.00 88 1010.5
20260510045555 21 0 3.2 14.5 0.00 0.10 0.10 87 1010.3
20260510045055 21 145 4.8 14.5 0.00 0.10 0.10 88 1010.1
20260510044557 21 172 4.8 11.3 0.00 0.10 0.10 88 1010.1
20260510044054 21 166 4.8 9.7 0.00 0.10 0.10 88 1010.2
20260510043557 21 180 4.8 9.7 0.00 0.10 0.10 89 1010.2
20260510043058 21 178 3.2 6.4 0.00 0.10 0.10 89 1010.3
20260510042555 21 178 1.6 6.4 0.00 0.10 0.10 89 1010.4
20260510042054 21 178 1.6 6.4 0.00 0.10 0.10 87 1010.4
20260510041556 21 178 3.2 4.8 0.00 0.10 0.10 87 1010.4
20260510041056 21 178 3.2 6.4 0.00 0.10 0.10 87 1010.2
20260510040556 21 178 1.6 8.0 0.00 0.10 0.10 87 1010.3
20260510040058 21 179 4.8 8.0 0.00 0.10 0.10 87 1010.1
20260510035555 21 165 3.2 8.0 0.00 0.10 0.10 87 1010.2
20260510035055 21 154 0.0 4.8 0.00 0.10 0.10 86 1010.2
20260510034556 21 0 1.6 4.8 0.00 0.10 0.10 85 1010.1
20260510034055 21 154 1.6 4.8 0.00 0.10 0.10 85 1010.1
20260510033554 22 154 1.6 4.8 0.00 0.10 0.10 84 1010.0
20260510033126 22 155 1.6 3.2 0.00 0.10 0.10 84 1010.0
20260510032554 22 155 1.6 4.8 0.00 0.10 0.10 84 1010.0
20260510032055 22 155 1.6 8.0 0.00 0.10 0.10 83 1009.9
20260510031558 22 155 1.6 8.0 0.00 0.10 0.10 83 1009.8
20260510031054 22 153 3.2 8.0 0.00 0.10 0.10 83 1009.7
20260510030554 22 128 3.2 8.0 0.00 0.10 0.10 82 1009.8
20260510030059 23 151 3.2 8.0 0.00 0.10 0.10 82 1009.7
20260510025554 23 152 3.2 9.7 0.00 0.10 0.10 81 1009.6
20260510025054 23 143 3.2 12.9 0.00 0.10 0.10 80 1009.6
20260510024605 23 117 3.2 12.9 0.00 0.10 0.10 80 1009.5
20260510024058 23 141 6.4 11.3 0.00 0.10 0.10 79 1009.4
20260510023554 24 115 3.2 6.4 0.00 0.10 0.10 78 1009.2
20260510023057 24 136 1.6 8.0 0.00 0.10 0.10 77 1009.0
20260510022554 25 159 1.6 9.7 0.00 0.10 0.10 76 1008.7
20260510022055 25 171 3.2 9.7 0.00 0.10 0.10 75 1008.6
20260510021601 25 196 3.2 16.1 0.00 0.10 0.10 75 1008.4
20260510021054 25 173 4.8 16.1 0.00 0.10 0.10 74 1008.3
20260510020555 25 165 6.4 16.1 0.00 0.10 0.10 74 1008.4
20260510020112 25 152 6.4 17.7 0.00 0.10 0.10 74 1008.3
20260510015555 25 180 6.4 17.7 0.00 0.10 0.10 73 1008.1
20260510015055 25 150 9.7 20.9 0.00 0.10 0.10 73 1008.1
20260510014603 25 183 9.7 24.1 0.00 0.10 0.10 72 1008.0
20260510014055 25 195 11.3 24.1 0.00 0.10 0.10 72 1007.9
20260510013556 26 194 9.7 24.1 0.00 0.10 0.10 73 1008.2
20260510013106 26 181 8.0 14.5 0.00 0.10 0.10 73 1008.1
20260510012558 26 186 8.0 16.1 0.00 0.10 0.10 73 1008.1
20260510012054 26 204 8.0 17.7 0.00 0.10 0.10 73 1008.2
20260510011606 26 170 9.7 19.3 0.00 0.10 0.10 72 1008.2
20260510011055 26 174 9.7 19.3 0.00 0.10 0.10 72 1008.4
20260510010555 27 204 6.4 16.1 0.00 0.10 0.10 72 1008.3
20260510010056 27 170 6.4 16.1 0.00 0.10 0.10 72 1008.4
20260510005555 27 123 4.8 16.1 0.00 0.10 0.10 71 1008.4
20260510005054 27 173 6.4 19.3 0.00 0.10 0.10 70 1008.4
20260510004600 27 166 4.8 25.7 0.00 0.10 0.10 69 1008.4
20260510004055 28 156 8.0 25.7 0.00 0.10 0.10 68 1008.4
20260510003555 28 171 9.7 24.1 0.00 0.10 0.10 68 1008.3
20260510003106 28 162 8.0 24.1 0.00 0.10 0.10 67 1008.2
20260510002556 28 195 8.0 27.4 0.00 0.10 0.10 67 1008.1
20260510002052 29 167 9.7 27.4 0.00 0.10 0.10 66 1008.1
20260510001602 30 130 9.7 27.4 0.00 0.10 0.10 64 1008.0
20260510001052 30 173 12.9 27.4 0.00 0.10 0.10 62 1007.8
20260510000552 31 142 8.0 17.7 0.00 0.10 0.10 60 1007.6
20260510000058 31 123 9.7 17.7 0.00 0.10 0.10 60 1007.6
20260509235553 31 153 8.0 17.7 0.00 0.10 0.10 60 1007.4
20260509235053 31 147 4.8 16.1 0.00 0.10 0.10 60 1007.4
20260509234614 31 150 6.4 14.5 0.00 0.10 0.10 61 1007.3
20260509234052 31 138 4.8 11.3 0.00 0.10 0.10 61 1007.3
20260509233556 30 105 3.2 11.3 0.00 0.10 0.10 62 1007.3
20260509233058 30 116 4.8 11.3 0.00 0.10 0.10 61 1007.3
20260509232552 30 123 3.2 12.9 0.00 0.10 0.10 63 1007.4
20260509232052 30 124 4.8 16.1 0.00 0.10 0.10 63 1007.4
20260509231601 30 132 8.0 16.1 0.00 0.10 0.10 61 1007.4
20260509231054 30 144 8.0 12.9 0.00 0.10 0.10 62 1007.3
20260509230551 30 137 3.2 12.9 0.00 0.10 0.10 61 1007.4
20260509225554 31 126 6.4 12.9 0.00 0.10 0.10 59 1007.3
20260509225051 31 138 4.8 11.3 0.00 0.10 0.10 58 1007.3
20260509224602 31 131 3.2 11.3 0.00 0.10 0.10 59 1007.3
20260509224052 31 58 3.2 6.4 0.00 0.10 0.10 59 1007.3
20260509223552 31 57 3.2 6.4 0.00 0.10 0.10 57 1007.4
20260509223102 31 57 3.2 8.0 0.00 0.10 0.10 58 1007.5
20260509222556 31 57 3.2 8.0 0.00 0.10 0.10 58 1007.5
20260509222052 31 57 4.8 8.0 0.00 0.10 0.10 56 1007.3
20260509221555 31 55 3.2 8.0 0.00 0.10 0.10 56 1007.3
20260509221052 31 54 4.8 8.0 0.00 0.10 0.10 54 1007.4
20260509220552 31 51 3.2 9.7 0.00 0.10 0.10 54 1007.3
20260509220058 32 0 3.2 9.7 0.00 0.10 0.10 53 1007.4
20260509215555 32 40 3.2 9.7 0.00 0.10 0.10 51 1007.5
20260509215052 32 5 3.2 9.7 0.00 0.10 0.10 51 1007.4
20260509214555 33 0 1.6 12.9 0.00 0.10 0.10 50 1007.4
20260509214056 33 9 3.2 12.9 0.00 0.10 0.10 49 1007.4
20260509213552 34 313 6.4 12.9 0.00 0.10 0.10 49 1007.4
20260509213059 34 298 0.0 11.3 0.00 0.10 0.10 50 1007.4
20260509212555 33 0 3.2 11.3 0.00 0.10 0.10 46 1007.4
20260509212054 33 0 3.2 14.5 0.00 0.10 0.10 47 1007.4
20260509211557 33 296 8.0 14.5 0.00 0.10 0.10 50 1007.5
20260509211052 32 11 6.4 12.9 0.00 0.10 0.10 53 1007.5
20260509210552 32 319 3.2 8.0 0.00 0.10 0.10 55 1007.4
20260509210059 32 304 1.6 12.9 0.00 0.10 0.10 52 1007.5
20260509205551 32 0 1.6 12.9 0.00 0.10 0.10 49 1007.6
20260509205054 32 48 1.6 9.7 0.00 0.10 0.10 54 1007.7
20260509204601 32 33 4.8 9.7 0.00 0.10 0.10 52 1007.7
20260509204055 32 27 1.6 9.7 0.00 0.10 0.10 52 1007.8
20260509203555 33 0 1.6 12.9 0.00 0.10 0.10 51 1007.8
20260509203113 32 26 4.8 12.9 0.00 0.10 0.10 54 1007.9
20260509202552 32 318 3.2 12.9 0.00 0.10 0.10 57 1008.0
20260509202054 32 218 6.4 14.5 0.00 0.10 0.10 53 1008.0
20260509201553 32 241 4.8 14.5 0.00 0.10 0.10 52 1008.0
20260509201054 32 236 6.4 12.9 0.00 0.10 0.10 54 1008.1
20260509200551 32 63 0.0 11.3 0.00 0.10 0.10 54 1008.2
20260509200057 32 56 3.2 14.5 0.00 0.10 0.10 54 1008.2
20260509195555 32 0 4.8 17.7 0.00 0.10 0.10 53 1008.4
20260509195054 32 269 9.7 17.7 0.00 0.10 0.10 54 1008.5
20260509194555 32 288 4.8 14.5 0.00 0.10 0.10 54 1008.5
20260509194055 32 250 6.4 20.9 0.00 0.10 0.10 52 1008.5
20260509193555 32 227 4.8 20.9 0.00 0.10 0.10 54 1008.5
20260509193100 32 284 6.4 20.9 0.00 0.10 0.10 54 1008.6
20260509192552 32 207 6.4 14.5 0.00 0.10 0.10 54 1008.6
20260509192054 32 225 6.4 14.5 0.00 0.10 0.10 53 1008.7
20260509191554 32 0 4.8 14.5 0.00 0.10 0.10 53 1008.7
20260509191055 31 71 1.6 14.5 0.00 0.10 0.10 54 1008.8
20260509190556 32 281 1.6 8.0 0.00 0.10 0.10 52 1008.9
20260509190057 32 52 3.2 14.5 0.00 0.10 0.10 53 1009.0
20260509185558 31 27 4.8 14.5 0.00 0.10 0.10 56 1009.0
20260509185054 31 282 4.8 14.5 0.00 0.10 0.10 57 1009.0
20260509184556 31 5 3.2 11.3 0.00 0.10 0.10 54 1008.9
20260509184055 31 299 4.8 11.3 0.00 0.10 0.10 56 1009.1
20260509183552 31 317 1.6 12.9 0.00 0.10 0.10 58 1009.3
20260509183104 31 32 3.2 12.9 0.00 0.10 0.10 53 1009.4
20260509182552 31 269 3.2 9.7 0.00 0.10 0.10 60 1009.4
20260509182052 31 0 1.6 6.4 0.00 0.10 0.10 56 1009.4
20260509181610 30 37 3.2 9.7 0.00 0.10 0.10 57 1009.5
20260509181051 30 74 1.6 9.7 0.00 0.10 0.10 58 1009.6
20260509180555 30 72 3.2 9.7 0.00 0.10 0.10 58 1009.7
20260509180117 30 23 0.0 8.0 0.00 0.10 0.10 58 1009.7
20260509175552 30 69 1.6 6.4 0.00 0.10 0.10 58 1009.8
20260509175057 30 209 1.6 12.9 0.00 0.10 0.10 58 1010.0
20260509174554 30 258 3.2 12.9 0.00 0.10 0.10 58 1010.0
20260509174052 30 251 6.4 11.3 0.00 0.10 0.10 62 1010.0
20260509173552 30 311 3.2 8.0 0.00 0.10 0.10 61 1010.2
20260509173109 29 0 0.0 11.3 0.00 0.10 0.10 63 1010.2
20260509172556 29 267 4.8 11.3 0.00 0.10 0.10 64 1010.3
20260509172055 30 261 3.2 12.9 0.00 0.10 0.10 64 1010.1
20260509171555 29 314 1.6 16.1 0.00 0.10 0.10 65 1010.2
20260509171055 29 236 6.4 16.1 0.00 0.10 0.10 62 1010.2
20260509170554 29 292 6.4 16.1 0.00 0.10 0.10 64 1010.2
20260509170057 29 297 4.8 14.5 0.00 0.10 0.10 66 1010.1
20260509165552 29 307 4.8 14.5 0.00 0.10 0.10 67 1010.1
20260509165051 29 319 1.6 12.9 0.00 0.10 0.10 64 1010.1
20260509164555 29 319 3.2 9.7 0.00 0.10 0.10 63 1010.2
20260509164052 29 319 3.2 9.7 0.00 0.10 0.10 68 1010.2
20260509163552 29 5 3.2 9.7 0.00 0.10 0.10 69 1010.0
20260509163055 28 87 1.6 4.8 0.00 0.10 0.10 69 1009.8
20260509162551 28 0 0.0 6.4 0.00 0.10 0.10 70 1009.7
20260509162050 28 0 1.6 8.0 0.00 0.10 0.10 69 1009.4
20260509161602 27 249 0.0 9.7 0.00 0.10 0.10 68 1009.4
20260509161051 27 250 3.2 16.1 0.00 0.10 0.10 70 1009.6
20260509160555 27 275 0.0 16.1 0.00 0.10 0.10 71 1009.6
20260509160058 28 277 9.7 16.1 0.00 0.10 0.10 69 1009.7
20260509155551 28 240 4.8 16.1 0.00 0.10 0.10 71 1009.4
20260509155056 27 288 4.8 17.7 0.00 0.10 0.10 73 1009.3
20260509154612 27 247 6.4 17.7 0.00 0.10 0.10 72 1009.6
20260509154058 27 236 9.7 16.1 0.00 0.10 0.10 75 1009.7
20260509153559 26 247 6.4 16.1 0.00 0.10 0.10 81 1009.6
20260509153110 26 213 8.0 16.1 0.00 0.10 0.10 80 1009.7
20260509152555 26 234 3.2 12.9 0.00 0.10 0.10 83 1009.7
20260509152059 26 226 4.8 14.5 0.00 0.10 0.10 85 1009.9
20260509151607 25 223 6.4 14.5 0.00 0.10 0.10 85 1009.6
20260509151056 25 178 8.0 14.5 0.00 0.10 0.10 85 1009.4
20260509150600 25 200 6.4 14.5 0.00 0.10 0.10 86 1009.6
20260509150059 25 233 8.0 16.1 0.00 0.10 0.10 87 1009.8
20260509145557 25 213 9.7 16.1 0.00 0.10 0.10 87 1009.7
20260509145056 25 204 8.0 14.5 0.00 0.10 0.10 89 1009.5
20260509144557 25 200 6.4 11.3 0.00 0.10 0.10 89 1009.7
20260509144056 24 221 3.2 11.3 0.00 0.10 0.10 89 1010.1
20260509143556 24 221 4.8 11.3 0.00 0.10 0.10 90 1010.2
20260509143109 24 254 3.2 9.7 0.00 0.10 0.10 90 1010.3
20260509142556 24 262 3.2 6.4 0.00 0.10 0.10 90 1010.2
20260509142056 24 261 3.2 6.4 0.00 0.10 0.10 89 1010.3
20260509141559 24 0 1.6 3.2 0.00 0.10 0.10 90 1010.2
20260509141057 24 0 0.0 3.2 0.00 0.10 0.10 89 1010.2
20260509140556 24 0 0.0 3.2 0.00 0.10 0.10 90 1010.3
20260509140058 24 0 0.0 3.2 0.00 0.10 0.10 91 1010.1
20260509135559 24 0 1.6 3.2 0.00 0.10 0.10 91 1010.1
20260509135055 23 0 0.0 4.8 0.00 0.10 0.10 92 1010.2
20260509134557 23 0 0.0 4.8 0.00 0.10 0.10 92 1010.4
20260509134056 23 0 1.6 4.8 0.00 0.10 0.10 93 1010.3
20260509133557 23 0 0.0 4.8 0.00 0.10 0.10 93 1010.2
20260509133107 23 0 1.6 4.8 0.00 0.10 0.10 93 1010.2
20260509132557 23 261 0.0 4.8 0.00 0.10 0.10 92 1010.1
20260509132056 23 0 0.0 6.4 0.00 0.10 0.10 92 1009.8
20260509131556 23 261 3.2 8.0 0.00 0.10 0.10 91 1009.9
20260509131056 23 0 1.6 12.9 0.00 0.10 0.10 91 1009.8
20260509130556 23 315 6.4 16.1 0.00 0.10 0.10 91 1009.8
20260509130115 23 297 4.8 22.5 0.00 0.10 0.10 91 1010.0
20260509125557 23 319 11.3 24.1 0.00 0.10 0.10 91 1009.9
20260509125056 23 10 12.9 24.1 0.00 0.10 0.10 90 1009.9
20260509124559 23 319 8.0 16.1 0.00 0.10 0.10 89 1009.7
20260509124056 23 360 4.8 37.0 0.00 0.10 0.10 91 1009.6
20260509123559 23 239 19.3 37.0 0.00 0.10 0.10 93 1009.8
20260509123055 23 299 17.7 29.0 0.03 0.10 0.10 92 1009.6
20260509122556 23 296 8.0 35.4 0.03 0.10 0.10 92 1009.6
20260509122056 23 214 9.7 49.9 0.03 0.10 0.10 92 1008.6
20260509121555 23 169 25.7 56.3 0.05 0.10 0.10 92 1007.5
20260509121059 22 170 25.7 56.3 0.05 0.10 0.10 94 1006.5
20260509120556 22 123 33.8 54.7 0.08 0.10 0.10 96 1006.0
20260509120100 22 170 24.1 43.5 0.08 0.10 0.10 96 1006.4
20260509115555 22 130 19.3 48.3 0.08 0.10 0.10 96 1007.1
20260509115055 22 126 27.4 48.3 0.08 0.10 0.10 97 1006.8
20260509114558 22 146 24.1 37.0 0.10 0.10 0.10 97 1007.5
20260509114101 22 135 20.9 37.0 0.10 0.10 0.10 97 1008.0
20260509113600 22 128 19.3 33.8 0.10 0.10 0.10 97 1009.3
20260509113054 22 146 8.0 19.3 0.08 0.08 0.08 97 1010.2
20260509112556 23 156 6.4 19.3 0.08 0.08 0.08 97 1010.4
20260509112056 23 171 9.7 17.7 0.08 0.08 0.08 97 1010.5
20260509111554 23 159 8.0 17.7 0.05 0.05 0.05 97 1010.7
20260509111056 23 121 6.4 17.7 0.05 0.05 0.05 97 1010.7
20260509110556 23 157 8.0 14.5 0.03 0.03 0.03 97 1010.3
20260509110058 23 148 3.2 16.1 0.03 0.03 0.03 97 1010.2
20260509105556 23 203 8.0 16.1 0.03 0.03 0.03 97 1010.2
20260509105056 23 153 1.6 16.1 0.03 0.03 0.03 97 1010.0
20260509104608 23 96 3.2 16.1 0.00 0.00 0.00 97 1009.6
20260509104101 23 142 9.7 14.5 0.00 0.00 0.00 97 1008.8
20260509103555 23 182 4.8 11.3 0.00 0.00 0.00 97 1009.1
20260509103110 23 185 3.2 11.3 0.00 0.00 0.00 97 1009.4
20260509102558 23 165 6.4 11.3 0.00 0.00 0.00 97 1009.1
20260509102057 23 173 3.2 8.0 0.00 0.00 0.00 97 1009.4
20260509101556 23 173 1.6 9.7 0.00 0.00 0.00 97 1009.4
20260509101055 23 0 1.6 11.3 0.00 0.00 0.00 97 1009.4
20260509100556 23 173 3.2 11.3 0.00 0.00 0.00 97 1009.3
20260509100055 23 141 3.2 9.7 0.00 0.00 0.00 97 1009.3
20260509095557 23 102 3.2 9.7 0.00 0.00 0.00 97 1009.1
20260509095058 23 101 3.2 9.7 0.00 0.00 0.00 97 1008.8
20260509094623 23 98 1.6 6.4 0.00 0.00 0.00 97 1008.9
20260509094056 23 0 1.6 6.4 0.00 0.00 0.00 97 1009.0
20260509093556 22 98 1.6 6.4 0.00 0.00 0.00 97 1008.9
20260509093056 22 0 3.2 6.4 0.00 0.00 0.00 97 1008.9
20260509092555 23 98 3.2 9.7 0.00 0.00 0.00 97 1008.9
20260509092056 23 98 3.2 9.7 0.00 0.00 0.00 97 1009.0
20260509091556 23 0 3.2 9.7 0.00 0.00 0.00 97 1008.7
20260509091056 23 98 3.2 9.7 0.00 0.00 0.00 97 1008.6
20260509090556 23 96 1.6 6.4 0.00 0.00 0.00 97 1008.8
20260509090059 23 96 1.6 4.8 0.00 0.00 0.00 97 1008.8
20260509085555 23 96 0.0 0.0 0.00 0.00 0.00 97 1009.0
20260509085056 23 0 0.0 4.8 0.00 0.00 0.00 97 1008.9
20260509084607 22 0 0.0 6.4 0.00 0.00 0.00 97 1008.6
20260509084056 22 96 3.2 6.4 0.00 0.00 0.00 96 1008.3
20260509083557 22 96 3.2 6.4 0.00 0.00 0.00 96 1008.4
20260509083058 22 96 1.6 6.4 0.00 0.00 0.00 96 1008.4
20260509082556 22 96 3.2 11.3 0.00 0.00 0.00 96 1008.4
20260509082056 23 96 4.8 11.3 0.00 0.00 0.00 96 1008.4
20260509081557 23 95 4.8 11.3 0.00 0.00 0.00 96 1008.4
20260509081055 23 90 3.2 11.3 0.00 0.00 0.00 96 1008.6
20260509080557 23 88 4.8 11.3 0.00 0.00 0.00 96 1008.5
20260509075556 22 82 4.8 11.3 0.00 0.00 0.00 96 1008.7
20260509075056 22 81 4.8 11.3 0.00 0.00 0.00 96 1008.7
20260509074603 22 99 3.2 9.7 0.00 0.00 0.00 96 1008.9
20260509074055 22 100 3.2 11.3 0.00 0.00 0.00 96 1009.3
20260509073555 22 98 3.2 11.3 0.00 0.00 0.00 96 1009.3
20260509073059 22 84 4.8 11.3 0.00 0.00 0.00 96 1009.3
20260509072556 22 79 3.2 8.0 0.00 0.00 0.00 96 1009.2
20260509072055 22 73 3.2 6.4 0.00 0.00 0.00 96 1009.4